Voltar ao catálogo

NIMBUS 2 DEB

AtivoLEO
NORAD 25612·DEBRIS·🇺🇸 United States

Lançado May 15, 1966 de Vandenberg Space Force Base

Loading…

Próximas Passagens (próximas 24 horas)

TLE

AtualizadoSource: Space-Track

Época: Sep 13, 2026, 06:07 UTC

1 25612U 66040E   26256.25506961  .00002709  00000-0  26773-2 0  9992
2 25612 100.4893 175.9070 0034176 294.0835 219.5400 13.79352253447718

Acompanhe NIMBUS 2 DEB em tempo real com AllMySat

Download on the App Store